Wind_Speed
32 33 33 33 34 34 34 34 34 34 34 34 34 33 33 33 34 34 34 34 33 32 31 31 30 30 30 30 31 32 32 32 33 33 33 34 35 35 36 36 37 37 37 38
33 33 32 33 34 34 34 34 34 35 35 35 35 34 34 34 34 34 35 35 35 34 33 32 32 32 32 32 33 33 33 33 34 35 35 36 36 37 37 38 39 39 39 39
32 31 31 32 32 34 34 35 35 35 35 36 36 35 34 33 34 34 34 34 35 35 35 34 34 34 34 34 34 34 34 35 36 36 37 38 38 38 39 39 40 41 41 42
32 32 32 32 32 33 34 34 35 36 36 36 36 36 33 33 33 33 33 33 34 35 36 36 36 35 35 35 36 36 36 36 36 37 38 38 39 39 40 41 41 42 42 43
32 33 33 33 33 34 34 34 35 36 36 36 36 37 33 32 32 33 33 34 34 35 36 36 37 37 37 37 37 38 38 38 38 38 39 39 40 41 41 42 42 42 43 43
33 33 34 34 34 34 35 35 36 36 36 37 34 36 35 32 31 31 32 33 34 35 36 37 37 38 38 38 38 39 39 40 39 40 41 41 42 42 43 43 43 43 43 44
33 33 33 34 34 34 35 35 35 36 36 36 34 36 35 32 31 31 32 33 34 35 36 37 38 38 39 40 40 40 41 41 41 41 42 43 43 43 43 43 43 44 44 44
33 33 33 34 34 34 34 35 35 36 37 36 35 36 33 32 32 32 33 34 35 35 36 37 39 39 40 41 41 41 41 42 42 42 43 44 44 43 43 44 44 44 45 45
33 34 33 33 33 33 33 33 34 36 37 37 36 35 33 32 32 33 33 34 35 36 37 38 38 39 40 41 42 43 42 43 43 43 43 44 44 43 43 44 45 45 45 45
33 34 33 33 33 33 32 32 34 35 37 37 37 35 33 32 33 34 34 34 35 36 37 38 38 39 40 41 42 42 43 43 44 44 44 43 43 43 43 43 44 45 45 45
33 33 32 33 33 33 33 33 34 35 37 37 37 36 34 34 34 34 35 35 35 37 37 37 38 39 40 40 41 42 42 43 43 43 43 43 43 43 43 43 43 43 44 44
32 33 34 33 33 33 33 32 32 34 35 37 38 37 34 34 35 35 35 35 36 36 37 37 38 38 40 41 42 42 42 43 43 43 43 43 43 43 43 42 42 41 41 41
32 34 35 34 34 34 34 33 33 33 35 36 37 37 35 35 35 36 36 36 36 36 36 37 38 38 39 40 41 42 43 43 42 43 43 43 43 42 42 41 40 39 39 40
32 34 35 35 35 35 35 35 36 36 37 37 37 36 35 35 35 36 36 37 37 37 37 37 38 38 38 39 40 40 41 42 42 42 42 42 42 41 40 40 39 39 39 39
32 33 34 34 35 36 36 36 37 39 39 39 37 37 35 34 34 35 36 36 37 37 37 37 37 38 38 38 38 39 40 41 42 42 41 41 40 40 40 39 39 39 39 39
33 34 34 34 34 36 36 36 37 38 39 39 38 37 35 36 36 37 37 37 37 36 36 36 37 37 38 38 39 39 40 40 41 40 39 39 39 39 39 38 38 38 38 38
33 34 35 35 35 37 37 34 35 37 37 38 38 36 36 36 36 37 37 36 36 36 36 36 36 37 38 38 38 38 39 39 39 38 38 38 38 38 38 37 37 38 38 38
33 33 34 35 36 38 35 34 34 35 36 37 37 36 36 36 36 36 36 37 36 36 37 37 37 37 38 39 39 38 38 38 38 37 37 38 38 38 37 37 37 37 36 36
34 33 34 34 34 35 33 32 33 34 34 34 35 36 36 37 37 36 36 36 36 36 37 37 38 38 39 39 39 39 38 37 36 36 36 36 36 36 36 36 36 36 35 35
32 32 33 34 34 34 32 31 31 33 33 33 35 35 36 36 36 35 36 36 36 37 37 37 38 38 39 39 39 38 37 36 35 34 34 34 34 35 34 34 34 34 34 34
31 32 33 34 35 34 33 32 32 33 33 33 34 35 36 36 35 34 34 35 35 36 37 37 37 38 38 38 37 36 35 34 34 33 33 33 34 34 33 33 33 33 33 33
32 33 33 34 34 33 32 33 33 33 34 34 33 34 35 35 34 34 34 35 36 36 37 38 37 37 37 36 35 33 33 33 33 33 33 33 33 33 32 32 32 32 33 33
32 32 33 33 33 32 33 33 34 34 34 33 33 34 34 34 34 34 35 36 36 37 37 37 37 38 36 35 34 33 32 32 32 32 33 33 32 32 32 31 32 32 31 31
31 31 32 33 33 33 34 34 33 33 33 33 33 34 34 34 35 35 35 36 36 36 36 36 36 36 35 35 33 32 32 31 32 32 32 32 31 31 31 32 32 31 32 32
29 30 32 33 33 33 32 32 32 33 33 32 33 33 34 34 34 34 34 34 34 34 34 34 34 34 33 33 32 31 31 31 31 31 31 31 32 32 31 31 31 32 32 32
29 30 32 33 32 33 31 31 32 32 31 31 31 32 32 32 32 33 32 32 32 32 32 32 32 32 31 31 30 30 29 29 29 30 30 30 31 31 31 31 31 32 32 32
Wind_Direction
258 259 260 261 261 263 263 264 264 264 263 262 262 261 260 259 259 259 258 257 258 259 258 258 259 261 262 263 262 263 264 265 265 265 266 266 267 268 268 269 269 270 270 270
259 260 261 261 260 262 263 264 264 263 263 262 262 261 260 260 260 260 259 258 258 258 258 259 260 261 262 263 264 264 264 265 266 266 267 267 268 269 269 270 270 270 270 271
260 261 261 261 261 262 263 264 264 263 263 262 262 260 260 259 260 260 259 258 258 258 258 260 261 262 263 263 263 264 264 265 266 267 267 268 268 270 271 271 271 271 271 271
258 260 262 263 263 264 264 264 264 264 263 262 261 262 259 260 260 260 260 260 259 259 259 260 261 262 263 263 264 264 265 266 268 268 268 268 269 271 272 271 271 271 271 272
259 261 262 263 263 263 263 263 264 265 264 263 262 263 260 260 260 261 261 262 262 261 261 261 262 262 263 264 264 264 265 267 268 269 270 270 270 271 271 272 272 271 271 271
260 262 263 263 263 262 262 262 263 264 264 264 263 264 262 260 261 262 263 263 263 263 263 262 263 263 264 264 265 265 266 267 268 270 271 271 271 272 272 272 271 271 271 271
260 262 262 262 261 260 260 260 262 263 262 263 263 263 263 262 263 264 264 264 264 265 265 264 264 264 264 265 266 266 267 267 268 270 271 272 272 273 272 272 271 271 271 271
262 262 263 262 261 261 260 260 261 263 264 264 264 264 264 263 265 266 266 266 266 267 267 267 266 265 265 266 266 267 268 268 269 270 272 272 273 272 272 273 272 271 271 271
264 264 263 262 261 261 260 260 261 263 264 265 265 264 263 264 265 266 268 269 268 269 269 268 267 267 268 267 267 267 269 270 270 271 272 274 274 273 273 272 272 271 271 272
264 264 262 261 260 258 259 261 262 262 263 264 265 264 264 266 267 268 269 271 272 271 271 270 269 268 269 269 269 269 270 272 272 271 272 274 274 274 273 272 272 272 272 272
262 263 263 260 259 259 260 261 261 262 263 264 265 265 267 269 269 270 271 272 274 273 273 272 271 271 271 271 271 271 272 273 274 273 272 273 273 274 274 273 273 272 272 272
261 261 261 261 259 259 259 259 261 261 262 263 266 268 269 270 271 273 274 275 276 276 274 274 273 273 272 273 273 273 273 274 274 274 273 272 273 274 274 274 273 273 272 271
260 260 261 260 258 258 257 256 259 260 261 262 265 269 270 271 272 274 275 276 277 278 276 275 275 276 275 275 274 273 273 274 274 275 274 273 274 274 274 273 273 272 271 271
261 260 260 261 261 260 259 258 258 260 262 264 266 270 271 272 272 274 275 276 277 278 279 277 277 277 278 277 275 274 273 274 273 274 274 274 274 273 273 272 272 273 273 273
261 261 262 261 261 260 260 261 260 261 264 266 268 270 272 273 274 274 274 275 277 278 279 279 278 278 278 277 276 275 275 274 273 273 273 273 273 273 272 272 272 273 273 272
261 262 263 262 262 262 262 262 262 262 263 266 269 271 272 273 274 274 274 275 276 277 278 279 278 278 279 278 278 277 276 275 273 272 272 271 271 272 272 272 272 272 272 272
261 262 261 261 262 262 263 264 264 264 264 266 269 271 271 273 273 274 274 275 275 277 278 279 279 279 279 280 280 279 278 276 273 271 270 269 271 271 271 272 273 273 272 272
261 260 261 262 261 262 265 265 265 266 267 267 268 269 271 272 273 274 275 275 276 277 278 278 280 280 281 281 280 280 279 277 274 272 271 271 271 271 271 272 272 273 273 273
259 258 260 262 263 265 264 266 267 268 268 268 269 270 271 272 272 272 274 275 276 278 279 279 280 282 282 282 280 280 279 277 274 272 271 271 271 271 270 270 271 272 272 271
259 258 259 261 265 267 268 267 269 271 270 270 270 271 272 273 274 273 273 275 276 277 279 279 281 282 282 282 281 279 277 275 273 271 270 271 271 271 271 271 271 271 270 269
258 258 259 262 265 268 269 268 270 272 273 272 272 272 273 274 275 274 273 275 277 276 277 278 280 283 283 282 281 278 275 273 271 270 270 270 271 271 270 270 270 269 269 269
261 261 262 264 266 270 271 270 271 273 273 274 274 273 273 274 274 274 275 276 278 278 278 278 280 282 283 281 279 276 273 271 270 270 269 269 270 270 270 270 270 270 269 269
262 262 264 265 268 270 271 272 273 273 274 274 273 273 273 273 273 274 276 278 279 279 279 279 280 281 281 280 277 274 272 270 270 270 269 269 270 270 270 269 269 269 269 269
262 262 263 265 267 270 271 272 272 272 273 273 274 274 274 274 275 277 278 279 279 280 280 280 280 281 281 279 276 273 273 271 270 270 269 269 270 270 270 270 268 268 268 269
265 265 265 265 267 269 271 271 272 272 273 273 274 274 275 275 276 277 278 279 279 280 280 280 281 282 281 279 276 275 275 273 272 272 271 270 271 271 270 269 268 269 270 269
265 266 266 266 267 267 269 271 272 272 272 272 273 274 274 277 277 277 278 278 279 279 280 281 282 282 281 279 277 276 275 274 273 272 272 272 273 272 270 269 269 270 272 271
Height
5705 5707 5708 5711 5712 5713 5713 5715 5716 5717 5717 5718 5719 5721 5722 5723 5724 5725 5726 5727 5729 5730 5731 5732 5733 5734 5735 5735 5736 5737 5737 5737 5737 5737 5738 5738 5739 5739 5739 5738 5738 5738 5738 5738
5697 5699 5701 5701 5702 5703 5704 5706 5707 5708 5708 5709 5710 5712 5714 5714 5716 5717 5718 5720 5721 5722 5723 5724 5725 5726 5727 5727 5727 5728 5728 5728 5729 5729 5729 5729 5729 5729 5729 5729 5728 5728 5728 5728
5689 5692 5692 5693 5694 5695 5696 5697 5698 5699 5699 5700 5701 5703 5705 5707 5707 5708 5710 5711 5712 5714 5715 5716 5717 5718 5718 5718 5719 5719 5719 5720 5720 5720 5720 5720 5719 5719 5719 5719 5718 5718 5717 5717
5681 5683 5684 5685 5687 5688 5688 5689 5689 5689 5690 5690 5692 5693 5698 5699 5699 5700 5702 5703 5704 5705 5706 5707 5707 5708 5709 5709 5710 5710 5710 5710 5710 5710 5710 5710 5710 5710 5709 5708 5707 5706 5706 5705
5673 5675 5676 5677 5679 5679 5680 5680 5681 5681 5680 5681 5683 5684 5689 5690 5691 5692 5693 5694 5695 5696 5697 5698 5698 5699 5700 5700 5700 5701 5701 5701 5701 5700 5700 5700 5699 5699 5698 5697 5696 5695 5694 5694
5666 5667 5668 5669 5670 5671 5671 5672 5672 5672 5672 5673 5676 5675 5679 5682 5683 5684 5685 5685 5686 5687 5688 5688 5689 5689 5690 5690 5691 5691 5691 5691 5690 5690 5689 5689 5688 5687 5686 5686 5685 5684 5683 5683
5658 5659 5659 5660 5661 5662 5663 5663 5663 5662 5662 5665 5667 5666 5671 5673 5675 5676 5677 5677 5677 5678 5678 5679 5679 5680 5680 5680 5681 5681 5681 5681 5680 5680 5679 5678 5677 5675 5675 5674 5673 5673 5672 5671
5649 5651 5652 5652 5653 5654 5655 5655 5656 5655 5655 5657 5658 5658 5663 5665 5666 5666 5667 5668 5668 5668 5669 5669 5669 5669 5670 5670 5670 5670 5670 5670 5669 5669 5668 5666 5665 5664 5663 5662 5661 5661 5660 5660
5641 5643 5644 5645 5645 5646 5646 5647 5648 5648 5647 5648 5649 5651 5655 5656 5657 5658 5658 5658 5659 5659 5659 5659 5659 5659 5659 5659 5659 5659 5659 5658 5658 5657 5656 5655 5653 5652 5651 5650 5649 5649 5648 5648
5633 5634 5636 5637 5637 5638 5639 5640 5640 5640 5639 5639 5641 5644 5647 5648 5649 5649 5649 5649 5649 5649 5649 5649 5648 5648 5648 5647 5647 5647 5647 5647 5646 5645 5644 5643 5642 5641 5639 5638 5638 5637 5636 5636
5625 5626 5628 5628 5629 5631 5632 5632 5632 5632 5632 5632 5632 5638 5640 5640 5640 5641 5641 5640 5640 5640 5639 5639 5639 5638 5637 5637 5636 5636 5635 5635 5634 5633 5632 5631 5630 5629 5628 5627 5626 5625 5624 5624
5617 5617 5618 5621 5622 5623 5623 5624 5625 5625 5625 5624 5624 5631 5632 5632 5632 5632 5632 5631 5631 5630 5629 5629 5628 5627 5627 5626 5625 5624 5624 5623 5622 5621 5621 5620 5619 5618 5617 5616 5615 5614 5613 5612
5609 5609 5609 5611 5615 5615 5615 5617 5617 5617 5617 5616 5617 5622 5623 5623 5623 5623 5623 5622 5621 5620 5620 5619 5618 5617 5616 5614 5613 5613 5612 5611 5610 5610 5609 5609 5608 5607 5606 5605 5604 5603 5602 5602
5600 5600 5602 5604 5605 5606 5607 5609 5609 5609 5608 5608 5610 5613 5615 5615 5614 5614 5613 5612 5611 5610 5610 5609 5608 5607 5605 5603 5602 5601 5600 5600 5599 5598 5597 5597 5596 5596 5595 5595 5594 5593 5592 5591
5591 5592 5593 5595 5596 5597 5598 5600 5601 5601 5601 5601 5603 5604 5606 5605 5604 5604 5603 5602 5602 5601 5600 5598 5597 5596 5595 5593 5592 5590 5589 5588 5587 5586 5586 5585 5585 5585 5585 5584 5583 5582 5581 5581
5582 5583 5585 5586 5588 5587 5589 5591 5592 5592 5592 5592 5593 5595 5596 5595 5594 5594 5593 5593 5592 5591 5590 5589 5587 5586 5585 5583 5582 5580 5578 5577 5576 5575 5575 5574 5574 5574 5574 5573 5573 5572 5571 5570
5575 5576 5576 5577 5579 5578 5580 5584 5584 5584 5584 5584 5584 5587 5585 5585 5585 5584 5584 5583 5582 5581 5580 5579 5577 5576 5575 5573 5571 5569 5567 5566 5564 5564 5564 5564 5564 5564 5564 5563 5562 5561 5561 5560
5567 5567 5567 5568 5569 5569 5576 5575 5575 5575 5576 5576 5576 5576 5576 5575 5575 5574 5573 5573 5572 5571 5570 5569 5567 5566 5564 5562 5560 5558 5557 5555 5554 5554 5553 5553 5553 5553 5553 5553 5552 5551 5550 5550
5559 5560 5559 5560 5559 5561 5566 5567 5566 5566 5567 5567 5567 5567 5566 5565 5565 5566 5564 5563 5562 5561 5560 5559 5557 5555 5554 5551 5549 5547 5546 5545 5544 5543 5543 5543 5543 5543 5543 5542 5542 5541 5541 5541
5551 5552 5553 5552 5551 5552 5559 5558 5557 5557 5557 5559 5558 5557 5557 5556 5556 5558 5555 5554 5553 5552 5550 5549 5547 5545 5543 5540 5538 5537 5535 5534 5534 5533 5533 5533 5533 5533 5533 5532 5532 5532 5531 5532
5543 5543 5544 5544 5543 5545 5549 5549 5548 5549 5550 5549 5548 5548 5547 5546 5547 5546 5545 5544 5543 5542 5540 5538 5537 5534 5532 5530 5528 5526 5525 5524 5524 5524 5524 5524 5524 5524 5523 5523 5523 5522 5522 5522
5535 5535 5536 5536 5537 5541 5540 5540 5540 5540 5539 5538 5538 5537 5537 5537 5536 5536 5535 5534 5533 5531 5530 5528 5526 5524 5522 5520 5518 5517 5516 5515 5515 5515 5515 5515 5514 5514 5514 5514 5514 5514 5513 5513
5527 5529 5528 5530 5532 5531 5531 5531 5530 5530 5529 5529 5528 5528 5527 5527 5526 5526 5525 5524 5523 5521 5520 5518 5516 5514 5512 5510 5508 5507 5506 5506 5506 5506 5505 5505 5505 5505 5505 5505 5505 5505 5505 5505
5519 5520 5520 5520 5522 5522 5522 5521 5521 5520 5520 5519 5519 5518 5518 5517 5517 5516 5515 5514 5513 5511 5510 5508 5506 5504 5502 5501 5499 5498 5497 5497 5497 5496 5496 5496 5496 5496 5496 5496 5496 5496 5497 5496
5511 5511 5510 5511 5513 5513 5513 5513 5512 5512 5511 5510 5509 5509 5508 5507 5507 5506 5505 5504 5503 5501 5500 5498 5496 5495 5493 5491 5490 5489 5488 5488 5488 5488 5487 5487 5487 5487 5488 5488 5488 5488 5488 5487
5504 5503 5502 5503 5504 5503 5504 5503 5503 5502 5501 5501 5500 5499 5499 5498 5497 5496 5495 5494 5493 5492 5490 5489 5487 5485 5484 5483 5482 5480 5479 5479 5479 5479 5479 5479 5479 5479 5479 5479 5479 5479 5479 5479